EW5954 Weather Reports


Display with metric or nautical units.
time (UTC)temp
F
wind
direction
speed
MPH
gust
MPH
rain 1hr
in
rain 24hr
in
rain mn
in
humidity
%
barometer
mb
20260509183714 66 235 2.0 6.0 0.00 0.00 0.00 54
20260509183209 66 342 2.0 10.0 0.00 0.00 0.00 55
20260509182705 66 231 5.0 9.0 0.00 0.00 0.00 56
20260509182203 66 49 4.0 7.0 0.00 0.00 0.00 56
20260509181700 66 249 1.0 5.0 0.00 0.00 0.00 55
20260509181157 67 195 3.0 8.0 0.00 0.00 0.00 53
20260509180654 67 260 6.0 8.0 0.00 0.00 0.00 53
20260509180150 66 274 3.0 6.0 0.00 0.00 0.00 55
20260509175646 67 268 5.0 9.0 0.00 0.00 0.00 54
20260509175144 65 278 4.0 9.0 0.00 0.00 0.00 56
20260509174639 66 282 5.0 11.0 0.00 0.00 0.00 55
20260509174134 65 267 3.0 6.0 0.00 0.00 0.00 56
20260509173630 66 351 2.0 5.0 0.00 0.00 0.00 56
20260509173126 66 340 2.0 6.0 0.00 0.00 0.00 57
20260509172623 67 173 2.0 6.0 0.00 0.00 0.00 56
20260509172119 66 76 5.0 7.0 0.00 0.00 0.00 57
20260509171615 66 346 1.0 9.0 0.00 0.00 0.00 57
20260509171111 66 189 5.0 10.0 0.00 0.00 0.00 57
20260509170608 65 218 3.0 9.0 0.00 0.00 0.00 58
20260509170104 65 220 2.0 7.0 0.00 0.00 0.00 59
20260509165603 66 329 1.0 3.0 0.00 0.00 0.00 57
20260509165058 65 4 5.0 9.0 0.00 0.00 0.00 60
20260509164554 65 87 2.0 6.0 0.00 0.00 0.00 60
20260509164050 65 311 0.0 6.0 0.00 0.00 0.00 60
20260509163549 66 15 3.0 8.0 0.00 0.00 0.00 60
20260509163043 64 184 6.0 8.0 0.00 0.00 0.00 60
20260509162541 66 172 3.0 5.0 0.00 0.00 0.00 60
20260509162036 65 58 3.0 9.0 0.00 0.00 0.00 62
20260509161533 64 233 4.0 6.0 0.00 0.00 0.00 63
20260509161028 63 257 4.0 6.0 0.00 0.00 0.00 63
20260509160524 64 347 5.0 8.0 0.00 0.00 0.00 63
20260509160020 64 356 2.0 5.0 0.00 0.00 0.00 63
20260509155516 64 237 3.0 6.0 0.00 0.00 0.00 64
20260509155012 63 207 6.0 9.0 0.00 0.00 0.00 65
20260509154509 62 209 2.0 6.0 0.00 0.00 0.00 68
20260509154007 62 276 2.0 7.0 0.00 0.00 0.00 69
20260509153503 61 238 2.0 7.0 0.00 0.00 0.00 70
20260509152959 61 170 3.0 6.0 0.00 0.00 0.00 72
20260509152455 60 283 2.0 7.0 0.00 0.00 0.00 72
20260509151952 59 269 3.0 6.0 0.00 0.00 0.00 73
20260509151449 59 277 0.0 6.0 0.00 0.00 0.00 77
20260509150947 58 0 0.0 2.0 0.00 0.00 0.00 80
20260509150444 57 265 2.0 5.0 0.00 0.00 0.00 81
20260509145942 56 330 0.0 2.0 0.00 0.00 0.00 82
20260509145437 56 244 1.0 2.0 0.00 0.00 0.00 81
20260509144932 56 6 0.0 3.0 0.00 0.00 0.00 81
20260509144430 56 352 0.0 2.0 0.00 0.00 0.00 82
20260509143927 56 267 1.0 3.0 0.00 0.00 0.00 81
20260509143424 55 340 0.0 2.0 0.00 0.00 0.00 82
20260509142920 55 341 0.0 3.0 0.00 0.00 0.00 82
20260509142417 54 273 1.0 5.0 0.00 0.00 0.00 82
20260509141912 54 300 2.0 2.0 0.00 0.00 0.00 82
20260509141410 53 344 1.0 3.0 0.00 0.00 0.00 82
20260509140906 53 241 1.0 2.0 0.00 0.00 0.00 82
20260509140403 53 339 1.0 5.0 0.00 0.00 0.00 82
20260509135901 53 332 0.0 2.0 0.00 0.00 0.00 82
20260509135358 53 254 0.0 3.0 0.00 0.00 0.00 82
20260509134856 52 0 2.0 5.0 0.00 0.00 0.00 81
20260509134353 52 280 2.0 2.0 0.00 0.00 0.00 81
20260509133850 51 333 1.0 2.0 0.00 0.00 0.00 81
20260509133346 51 315 1.0 3.0 0.00 0.00 0.00 80
20260509132845 51 294 0.0 2.0 0.00 0.00 0.00 79
20260509132343 50 324 0.0 0.0 0.00 0.00 0.00 79
20260509131840 50 341 0.0 0.0 0.00 0.00 0.00 79
20260509131336 50 320 1.0 1.0 0.00 0.00 0.00 79
20260509130833 49 320 0.0 0.0 0.00 0.00 0.00 80
20260509130328 48 320 0.0 1.0 0.00 0.00 0.00 80
20260509125825 48 315 0.0 1.0 0.00 0.00 0.00 81
20260509125322 48 242 1.0 1.0 0.00 0.00 0.00 81
20260509124818 47 307 1.0 1.0 0.00 0.00 0.00 81
20260509124315 47 293 0.0 2.0 0.00 0.00 0.00 82
20260509123814 47 192 1.0 2.0 0.00 0.00 0.00 81
20260509123310 46 331 1.0 1.0 0.00 0.00 0.00 81
20260509113904 44 334 0.0 0.0 0.00 0.00 0.00 80
20260509113401 44 334 0.0 0.0 0.00 0.00 0.00 80
20260509112857 44 169 0.0 2.0 0.00 0.00 0.00 80
20260509112354 44 17 0.0 1.0 0.00 0.00 0.00 80
20260509111852 43 336 0.0 2.0 0.00 0.00 0.00 81
20260509111348 43 323 0.0 0.0 0.00 0.00 0.00 81
20260509110846 43 351 0.0 0.0 0.00 0.00 0.00 81
20260509110342 43 323 0.0 1.0 0.00 0.00 0.00 81
20260509105841 43 343 0.0 0.0 0.00 0.00 0.00 81
20260509105338 42 336 0.0 0.0 0.00 0.00 0.00 81
20260509104835 42 358 0.0 0.0 0.00 0.00 0.00 81
20260509104331 42 6 0.0 0.0 0.00 0.00 0.00 82
20260509103829 42 46 0.0 0.0 0.00 0.00 0.00 82
20260509103326 42 2 0.0 0.0 0.00 0.00 0.00 82
20260509102825 42 1 0.0 0.0 0.00 0.00 0.00 81
20260509102322 42 1 0.0 0.0 0.00 0.00 0.00 81
20260509101818 42 353 0.0 0.0 0.00 0.00 0.00 81
20260509101314 42 3 0.0 0.0 0.00 0.00 0.00 81
20260509100812 42 8 0.0 0.0 0.00 0.00 0.00 81
20260509100309 42 353 0.0 0.0 0.00 0.00 0.00 81
20260509095805 42 18 0.0 0.0 0.00 0.00 0.00 81
20260509095305 42 0 0.0 0.0 0.00 0.00 0.00 81
20260509094800 42 8 0.0 0.0 0.00 0.00 0.00 80
20260509094256 42 13 0.0 0.0 0.00 0.00 0.00 80
20260509093754 42 28 0.0 0.0 0.00 0.00 0.00 80
20260509093251 42 355 0.0 0.0 0.00 0.00 0.00 80
20260509092750 43 354 0.0 0.0 0.00 0.00 0.00 80
20260509092247 43 8 0.0 0.0 0.00 0.00 0.00 79
20260509091745 43 346 0.0 0.0 0.00 0.00 0.00 79
20260509091241 43 4 0.0 0.0 0.00 0.00 0.00 78
20260509090739 44 300 0.0 0.0 0.00 0.00 0.00 78
20260509090236 44 350 0.0 1.0 0.00 0.00 0.00 77
20260509085734 44 339 0.0 0.0 0.00 0.00 0.00 76
20260509085231 44 336 0.0 0.0 0.00 0.00 0.00 76
20260509084727 44 341 0.0 0.0 0.00 0.00 0.00 76
20260509084224 44 328 1.0 1.0 0.00 0.00 0.00 76
20260509083722 44 257 1.0 1.0 0.00 0.00 0.00 76
20260509083218 45 351 0.0 0.0 0.00 0.00 0.00 75
20260509082715 45 331 0.0 1.0 0.00 0.00 0.00 73
20260509082212 45 355 0.0 0.0 0.00 0.00 0.00 72
20260509081709 45 334 0.0 0.0 0.00 0.00 0.00 72
20260509081206 45 334 0.0 1.0 0.00 0.00 0.00 72
20260509080704 45 305 0.0 1.0 0.00 0.00 0.00 73
20260509080202 45 298 0.0 0.0 0.00 0.00 0.00 73
20260509075659 45 324 0.0 0.0 0.00 0.00 0.00 73
20260509075157 45 335 0.0 0.0 0.00 0.00 0.00 73
20260509074654 45 330 0.0 0.0 0.00 0.00 0.00 72
20260509074150 45 316 1.0 1.0 0.00 0.00 0.00 71
20260509073647 46 326 0.0 0.0 0.00 0.00 0.00 70
20260509073143 46 333 0.0 0.0 0.00 0.00 0.00 68
20260509072641 47 283 0.0 1.0 0.00 0.00 0.00 65
20260509072137 47 310 1.0 1.0 0.00 0.00 0.00 66
20260509071634 47 322 1.0 1.0 0.00 0.00 0.00 66
20260509071131 47 347 0.0 3.0 0.00 0.00 0.00 67
20260509070628 47 278 2.0 2.0 0.00 0.00 0.00 66
20260509070125 47 327 0.0 1.0 0.00 0.00 0.00 64
20260509065620 47 273 2.0 2.0 0.00 0.00 0.00 64
20260509065116 47 234 0.0 5.0 0.00 0.00 0.00 64
20260509064614 46 331 2.0 3.0 0.00 0.00 0.00 65
20260509064112 46 2 0.0 1.0 0.00 0.00 0.00 69
20260509063608 45 340 0.0 0.0 0.00 0.00 0.00 70
20260509063105 45 325 0.0 0.0 0.00 0.00 0.00 71
20260509062602 46 336 0.0 0.0 0.00 0.00 0.00 69
20260509062059 46 333 0.0 1.0 0.00 0.00 0.00 68
20260509061556 46 235 0.0 2.0 0.00 0.00 0.00 69
20260509061053 46 242 0.0 1.0 0.00 0.00 0.00 69
20260509060551 46 292 1.0 2.0 0.00 0.00 0.00 69
20260509060046 46 256 1.0 2.0 0.00 0.00 0.00 70
20260509055542 46 308 1.0 2.0 0.00 0.00 0.00 70
20260509055038 46 320 1.0 3.0 0.00 0.00 0.00 70
20260509054535 46 329 1.0 2.0 0.00 0.00 0.00 71
20260509054033 46 191 1.0 2.0 0.00 0.00 0.00 71
20260509053532 46 315 1.0 2.0 0.00 0.00 0.00 71
20260509053028 46 309 1.0 2.0 0.00 0.00 0.00 70
20260509052526 46 302 1.0 2.0 0.00 0.00 0.00 70
20260509052023 46 311 1.0 2.0 0.00 0.00 0.00 70
20260509051521 47 332 1.0 1.0 0.00 0.00 0.00 69
20260509051018 47 316 2.0 3.0 0.00 0.00 0.00 69
20260509050515 47 334 1.0 3.0 0.00 0.00 0.00 67
20260509050011 47 188 2.0 5.0 0.00 0.00 0.00 67
20260509045509 47 275 1.0 2.0 0.00 0.00 0.00 66
20260509045006 47 270 3.0 3.0 0.00 0.00 0.00 65
20260509044504 48 278 0.0 1.0 0.00 0.00 0.00 65
20260509044001 48 336 0.0 0.0 0.00 0.00 0.00 64
20260509043456 48 335 0.0 1.0 0.00 0.00 0.00 64
20260509042951 48 301 0.0 1.0 0.00 0.00 0.00 64
20260509042449 48 345 0.0 0.0 0.00 0.00 0.00 63
20260509041945 48 332 0.0 1.0 0.00 0.00 0.00 63
20260509041442 48 345 0.0 2.0 0.00 0.00 0.00 63
20260509040940 48 338 0.0 2.0 0.00 0.00 0.00 62
20260509040438 48 301 0.0 2.0 0.00 0.00 0.00 62
20260509035934 48 329 0.0 1.0 0.00 0.09 0.09 62
20260509035431 49 328 0.0 2.0 0.00 0.09 0.09 61
20260509034927 49 282 1.0 2.0 0.00 0.09 0.09 61
20260509034425 49 334 0.0 2.0 0.00 0.09 0.09 61
20260509033922 49 316 0.0 2.0 0.00 0.09 0.09 60
20260509033419 49 323 1.0 2.0 0.00 0.09 0.09 60
20260509032915 49 349 0.0 1.0 0.00 0.09 0.09 59
20260509032413 50 342 0.0 0.0 0.00 0.09 0.09 58
20260509031911 50 343 0.0 2.0 0.00 0.09 0.09 57
20260509031408 50 330 1.0 2.0 0.00 0.09 0.09 56
20260509030905 50 103 1.0 3.0 0.00 0.09 0.09 56
20260509030404 51 29 0.0 1.0 0.00 0.09 0.09 56
20260509025901 51 319 0.0 2.0 0.00 0.09 0.09 56
20260509025355 51 267 0.0 1.0 0.00 0.09 0.09 56
20260509024851 51 312 2.0 3.0 0.00 0.09 0.09 56
20260509024347 51 336 1.0 1.0 0.00 0.09 0.09 56
20260509023844 51 333 2.0 2.0 0.00 0.09 0.09 56
20260509023341 51 298 2.0 2.0 0.00 0.09 0.09 57
20260509022833 51 226 0.0 2.0 0.00 0.09 0.09 58
20260509022330 51 322 0.0 2.0 0.00 0.09 0.09 58
20260509021827 51 337 0.0 2.0 0.00 0.09 0.09 57
20260509021324 51 336 0.0 2.0 0.00 0.09 0.09 57
20260509020822 51 333 1.0 3.0 0.00 0.09 0.09 57
20260509020320 50 1 1.0 2.0 0.00 0.09 0.09 59
20260509015817 50 270 1.0 5.0 0.00 0.09 0.09 59
20260509015315 51 355 1.0 3.0 0.00 0.09 0.09 59
20260509014811 51 229 1.0 3.0 0.00 0.09 0.09 58
20260509014308 51 289 1.0 3.0 0.00 0.09 0.09 59
20260509013805 51 286 1.0 1.0 0.00 0.09 0.09 59
20260509013301 51 327 0.0 2.0 0.00 0.09 0.09 59
20260509012757 51 326 0.0 3.0 0.00 0.09 0.09 59
20260509012254 51 318 2.0 2.0 0.00 0.09 0.09 58
20260509011751 51 316 0.0 2.0 0.00 0.09 0.09 58
20260509011248 51 92 1.0 1.0 0.00 0.09 0.09 58
20260509010746 52 237 2.0 2.0 0.00 0.09 0.09 57
20260509010243 52 257 0.0 1.0 0.00 0.09 0.09 57
20260509005741 52 301 0.0 2.0 0.00 0.09 0.09 56
20260509005238 52 272 0.0 1.0 0.00 0.09 0.09 56
20260509004737 53 234 1.0 3.0 0.00 0.09 0.09 55
20260509004235 53 334 0.0 5.0 0.00 0.09 0.09 55
20260509003733 53 133 1.0 3.0 0.00 0.09 0.09 54
20260509003230 53 349 1.0 3.0 0.00 0.09 0.09 54
20260509002727 53 132 1.0 6.0 0.00 0.09 0.09 54
20260509002225 54 310 0.0 3.0 0.00 0.09 0.09 53
20260509001723 54 171 3.0 5.0 0.00 0.09 0.09 53
20260509001218 55 315 4.0 6.0 0.00 0.09 0.09 51
20260509000716 56 67 0.0 2.0 0.00 0.09 0.09 42
20260509000213 56 20 1.0 2.0 0.00 0.09 0.09 32
20260508235710 57 43 0.0 3.0 0.00 0.09 0.09 32
20260508235206 57 40 1.0 2.0 0.00 0.09 0.09 32
20260508234704 57 352 1.0 2.0 0.00 0.09 0.09 31
20260508234200 58 57 0.0 3.0 0.00 0.09 0.09 32
20260508233654 58 72 2.0 5.0 0.00 0.09 0.09 32
20260508233152 59 48 2.0 9.0 0.00 0.09 0.09 31
20260508232649 59 16 3.0 5.0 0.00 0.09 0.09 30
20260508232145 59 7 1.0 5.0 0.00 0.09 0.09 31
20260508231643 59 25 3.0 6.0 0.00 0.09 0.09 30
20260508231140 59 11 2.0 3.0 0.00 0.09 0.09 30
20260508230636 60 331 4.0 6.0 0.00 0.09 0.09 29
20260508230133 59 45 0.0 3.0 0.00 0.09 0.09 30
20260508225631 60 23 2.0 6.0 0.00 0.09 0.09 29
20260508225126 60 38 2.0 3.0 0.00 0.09 0.09 29
20260508224625 60 65 2.0 7.0 0.00 0.09 0.09 30
20260508224122 60 9 1.0 5.0 0.00 0.09 0.09 29
20260508223620 61 358 0.0 2.0 0.00 0.09 0.09 30
20260508223116 61 24 0.0 5.0 0.00 0.09 0.09 30
20260508222614 61 43 2.0 5.0 0.00 0.09 0.09 30
20260508222111 60 42 4.0 6.0 0.00 0.09 0.09 29
20260508221607 62 57 6.0 8.0 0.00 0.09 0.09 29
20260508221103 62 358 0.0 3.0 0.00 0.09 0.09 29
20260508220559 61 31 0.0 6.0 0.00 0.09 0.09 30
20260508220056 61 96 1.0 3.0 0.00 0.09 0.09 29
20260508215553 61 275 1.0 1.0 0.00 0.09 0.09 29
20260508215050 62 11 3.0 3.0 0.00 0.09 0.09 30
20260508214547 62 1 3.0 6.0 0.00 0.09 0.09 30
20260508214043 62 352 0.0 1.0 0.00 0.09 0.09 30
20260508213541 62 56 2.0 2.0 0.00 0.09 0.09 30
20260508213036 62 31 1.0 2.0 0.00 0.09 0.09 29
20260508212533 61 293 1.0 3.0 0.00 0.09 0.09 29
20260508212030 60 227 1.0 3.0 0.00 0.09 0.09 31
20260508211525 61 36 1.0 7.0 0.00 0.09 0.09 31
20260508211022 60 77 3.0 5.0 0.00 0.09 0.09 34
20260508210518 60 103 5.0 7.0 0.00 0.09 0.09 49
20260508210016 58 196 1.0 7.0 0.00 0.09 0.09 54
20260508205513 58 245 1.0 5.0 0.00 0.09 0.09 58
20260508205009 58 305 3.0 6.0 0.00 0.09 0.09 57
20260508204506 55 68 1.0 5.0 0.00 0.09 0.09 60
20260508204002 57 296 2.0 3.0 0.00 0.09 0.09 58
20260508203458 57 303 1.0 7.0 0.00 0.09 0.09 59
20260508202953 56 0 1.0 6.0 0.00 0.09 0.09 59
20260508202451 55 234 3.0 9.0 0.00 0.09 0.09 60
20260508201948 55 208 3.0 8.0 0.00 0.09 0.09 61
20260508201444 55 324 1.0 5.0 0.00 0.09 0.09 58
20260508200941 55 271 3.0 7.0 0.00 0.09 0.09 60
20260508200438 55 246 4.0 8.0 0.00 0.09 0.09 60
20260508195933 55 293 1.0 8.0 0.00 0.09 0.09 59
20260508195431 55 261 6.0 10.0 0.00 0.09 0.09 57
20260508194926 56 254 3.0 7.0 0.00 0.09 0.09 57
20260508194424 56 322 1.0 5.0 0.00 0.09 0.09 56
20260508193921 56 297 4.0 5.0 0.00 0.09 0.09 54
20260508193418 56 227 3.0 6.0 0.00 0.09 0.09 54
20260508192914 56 334 2.0 3.0 0.00 0.09 0.09 54
20260508192411 57 306 2.0 6.0 0.00 0.09 0.09 51
20260508191908 56 100 1.0 6.0 0.00 0.09 0.09 53
20260508191406 57 258 2.0 5.0 0.00 0.09 0.09 52
20260508190902 57 340 3.0 6.0 0.00 0.09 0.09 51
20260508190359 56 349 0.0 6.0 0.00 0.09 0.09 50
20260508185855 57 357 0.0 2.0 0.00 0.09 0.09 49
20260508185353 55 334 0.0 6.0 0.00 0.09 0.09 51
20260508184850 56 301 1.0 7.0 0.00 0.09 0.09 51
20260508184347 58 296 0.0 6.0 0.00 0.09 0.09 38